This demonstration page uses our WeatherBlox Daily Observations layout. Learn more.

Left ArrowRight Arrow

38.20091, -84.87328

Hourly Observations for July 23, 2019

Temp ( °F °C ) Dew Point ( °F °C ) Humidity (%) Winds ( mph kmh ) Pressure ( in mb ) Visibility ( mi km ) Precip ( " mm )
12:53 am 00:53 Cloudy 69 20.6 65 18.3 87 87 NNW 3 6 29.98 1015 10 16 0.00 0.00
1:53 am 01:53 Cloudy 68 20 65 18.3 90 90 N 7 11 29.97 1015 10 16 0.00 0.00
2:53 am 02:53 Clear 67 19.4 63 17.2 87 87 NNW 6 9 29.96 1015 10 16 0.00 0.00
3:53 am 03:53 Clear 66 18.9 62 16.7 87 87 NNW 6 9 29.97 1015 10 16 0.00 0.00
4:53 am 04:53 Clear 65 18.3 61 16.1 87 87 N 6 9 29.97 1015 10 16 0.00 0.00
5:53 am 05:53 Clear 64 17.8 60 15.6 87 87 N 5 7 29.98 1015 10 16 0.00 0.00
6:53 am 06:53 Sunny 63 17.2 59 15 87 87 N 5 7 29.98 1015 10 16 0.00 0.00
7:53 am 07:53 Sunny 65 18.3 59 15 81 81 N 7 11 30.00 1016 10 16 0.00 0.00
8:53 am 08:53 Sunny 68 20 60 15.6 76 76 NNE 5 7 30.01 1016 10 16 0.00 0.00
9:53 am 09:53 Sunny 71 21.7 60 15.6 68 68 N 7 11 30.03 1017 10 16 0.00 0.00
10:53 am 10:53 Mostly Sunny 74 23.3 54 12.2 50 50 N 9 15 30.04 1017 10 16 0.00 0.00
11:53 am 11:53 Sunny 78 25.6 51 10.6 39 39 NE 14 22 30.04 1017 10 16 0.00 0.00
12:53 pm 12:53 Sunny 78 25.6 50 10 37 37 NE 12 19 30.03 1017 10 16 0.00 0.00
1:53 pm 13:53 Sunny 79 26.1 50 10 36 36 NNE 9 15 30.02 1017 10 16 0.00 0.00
2:53 pm 14:53 Mostly Sunny 79 26.1 51 10.6 38 38 N 8 13 30.01 1016 10 16 0.00 0.00
3:53 pm 15:53 Mostly Sunny 80 26.7 51 10.6 37 37 N 12 19 30.01 1016 10 16 0.00 0.00
4:53 pm 16:53 Partly Cloudy 80 26.7 52 11.1 38 38 N 10 17 30.01 1016 10 16 0.00 0.00
6:53 pm 18:53 Mostly Cloudy 80 26.7 54 12.2 41 41 N 7 11 29.99 1016 10 16 0.00 0.00
7:53 pm 19:53 Sunny 78 25.6 55 12.8 45 45 NNW 6 9 30.00 1016 10 16 0.00 0.00
8:53 pm 20:53 Sunny 71 21.7 58 14.4 63 63 Calm 30.02 1017 10 16 0.00 0.00
9:53 pm 21:53 Clear 67 19.4 59 15 76 76 Calm 30.02 1017 10 16 0.00 0.00
10:53 pm 22:53 Clear 64 17.8 60 15.6 87 87 Calm 30.04 1017 10 16 0.00 0.00
11:53 pm 23:53 Mostly Clear 64 17.8 60 15.6 87 87 Calm 30.04 1017 10 16 0.00 0.00

Powered by AerisWeather